Lid_Strength_Index
1 2 2 3 11 11 14 12 8 10 9 6 6 7 8 7 9 12 2 1 0 0 -0 -1 -2 -1 -1 -1 -1 -1 -1 -1 -1 -2 -1 -1 -1 -1 -1 -1 -1 -1 -1 -2 -1 -2 -2 -2 -2
2 2 2 6 13 16 14 9 11 8 7 6 6 6 7 9 5 4 3 1 -0 -0 -0 -0 -2 -2 -1 -1 -1 -1 -1 -1 -1 -1 -1 -1 -1 -1 -1 -1 -1 -1 -1 -2 -2 -1 -2 -2 -2
1 1 7 10 13 15 14 9 9 7 6 6 7 5 6 8 4 3 1 0 -0 -0 -0 -0 -1 -1 -1 -1 -1 -1 -1 -1 -1 -1 -1 -1 -1 -1 -1 -1 -1 -1 -1 -1 -1 -1 -2 -2 -1
2 4 6 12 14 11 11 8 7 7 6 5 6 8 5 3 3 2 0 0 0 0 -0 -1 -1 -1 -1 -1 -1 -1 -1 -1 -1 -1 -1 -1 -1 -1 -1 -1 -1 -1 -1 -1 -1 -1 -1 -1 -1
2 6 12 13 13 10 9 8 7 8 7 7 6 8 7 3 1 1 1 0 1 0 -0 -0 -2 -1 -1 -1 -1 -1 -1 -1 -1 -1 -1 -2 -2 -1 -2 -1 -1 -1 -1 -1 -1 -1 -1 -1 -1
7 7 13 15 13 10 8 7 7 7 7 6 7 7 7 2 2 2 1 1 -0 0 0 -0 -1 -1 -1 -1 -1 -1 -1 -1 -1 -1 -2 -2 -2 -1 -1 -1 -1 -1 -1 -1 -1 -1 -1 -1 -1
8 10 13 13 13 11 9 6 7 7 7 7 5 9 6 4 3 2 1 0 0 -0 0 -0 -0 -1 -1 -1 -1 -1 -1 -1 -1 -1 -1 -1 -1 -1 -1 -2 -2 -1 -1 -1 -1 -1 -1 -1 -1
6 9 12 12 13 13 8 7 6 6 7 4 4 9 8 4 2 1 1 1 0 0 0 0 0 0 0 0 -1 -1 -1 -1 -1 -1 -1 -1 -1 -1 -1 -2 -2 -1 -1 -1 -1 -1 -1 -1 -1
4 12 14 12 12 11 7 8 5 4 5 5 4 5 4 2 1 2 2 2 1 1 1 0 0 0 0 0 -1 -1 -1 -2 -1 -1 -1 -1 -0 0 -0 -1 -1 -1 -1 -1 -1 -1 -1 -1 -2
8 11 11 8 9 9 8 8 7 7 7 7 6 4 3 2 3 3 3 3 3 2 2 0 0 0 0 -1 0 0 -0 -0 0 0 0 0 0 0 -0 -1 -1 -1 -1 -1 -1 -1 -1 -1 -0
7 11 8 8 7 7 8 8 6 7 9 7 7 6 4 3 3 3 3 3 2 2 1 0 1 1 1 0 0 0 -0 -0 0 0 1 1 1 1 1 1 0 0 -1 -0 -1 -1 -0 -0 -0
10 8 7 7 6 7 8 7 7 6 6 5 4 4 4 4 4 3 3 3 2 2 1 2 1 2 1 -0 -0 0 0 2 1 1 1 1 1 2 2 2 1 1 0 0 -0 0 -0 -0 -0
9 8 7 6 6 7 6 8 7 7 4 4 4 4 4 4 4 3 3 2 2 2 1 2 2 2 0 0 1 1 -0 -0 2 2 2 0 1 2 2 0 1 2 3 2 2 1 0 0 0
7 7 7 6 7 6 8 7 7 6 4 4 4 5 4 4 4 3 3 3 2 2 1 1 2 -0 1 1 0 2 1 -0 0 1 0 -0 0 1 1 1 1 1 1 2 1 1 1 0 1
7 10 8 8 7 8 7 9 10 6 5 5 5 5 4 4 3 3 3 3 2 2 1 1 0 -0 1 1 -0 -0 -0 -0 1 0 -0 -0 0 0 1 1 2 2 1 1 1 1 1 1 1
9 9 13 9 8 7 8 13 8 6 6 7 5 5 5 4 3 3 2 2 3 2 2 1 2 1 1 2 -0 0 -0 -0 0 -0 -0 -1 0 0 0 1 1 1 1 1 0 1 1 1 1
10 15 14 12 8 9 9 12 8 6 6 7 6 6 5 5 4 3 2 2 2 1 1 1 1 1 1 1 -0 0 1 -0 -0 -0 -0 -0 -1 -1 0 1 2 2 2 1 1 1 1 2 1
15 14 13 13 10 9 11 11 9 7 7 7 7 6 5 5 4 3 2 1 1 1 1 1 1 1 1 1 1 0 0 0 0 0 -0 -0 -1 -1 1 1 3 2 2 2 2 2 2 1 1
10 12 12 11 9 10 12 12 10 8 7 8 7 7 6 6 4 3 2 2 2 3 2 1 1 1 1 1 1 1 2 1 2 3 0 -0 0 -0 2 2 2 2 2 3 3 2 1 1 0
10 12 13 10 9 10 11 12 10 8 8 7 7 7 6 6 5 3 3 2 2 2 2 2 1 1 1 1 1 1 1 1 0 1 1 0 0 1 0 2 2 3 3 4 4 1 2 1 1
12 13 13 12 10 10 11 13 11 9 8 7 6 6 6 6 5 5 3 3 2 2 2 2 1 1 1 1 1 1 2 2 2 1 1 1 0 1 2 1 2 2 3 3 3 2 2 3 1
14 9 10 11 13 16 11 18 13 11 10 8 7 6 6 6 5 4 4 3 3 2 1 1 1 1 1 1 1 2 3 3 2 1 1 1 1 2 2 1 2 2 2 2 2 1 2 1 3
10 8 9 11 13 13 14 17 14 11 12 10 8 7 6 5 5 5 4 3 2 2 2 1 1 1 1 1 1 1 2 2 1 1 1 1 1 2 2 2 2 1 2 2 2 2 2 4 2
7 9 9 11 13 17 14 16 15 14 11 10 8 7 6 5 5 4 3 3 3 2 2 1 2 1 1 1 1 2 2 2 2 2 2 1 2 2 2 1 2 2 2 2 4 2 1 1 1
10 14 17 16 18 18 14 15 14 11 9 8 8 7 6 5 5 4 4 4 3 3 2 2 2 2 1 1 1 1 1 1 2 2 2 2 2 2 1 2 2 2 2 3 4 1 1 1 1
12 13 16 19 20 17 13 17 14 9 8 7 7 6 6 5 5 5 4 3 3 3 2 2 2 2 1 1 2 1 1 2 1 1 3 2 1 1 1 1 1 1 2 4 1 1 1 1 1
12 14 12 15 16 17 16 13 10 9 9 8 7 7 6 5 5 4 4 3 3 3 3 2 2 2 2 1 1 1 1 2 2 1 1 1 1 0 0 0 1 1 1 1 1 1 1 1 1
10 10 14 14 20 21 17 16 16 12 11 8 8 8 7 5 5 4 4 4 3 2 2 2 2 2 1 1 1 1 1 1 2 1 1 1 0 1 1 0 1 1 1 1 1 1 1 2 1
12 12 13 13 15 19 20 17 11 11 10 9 8 7 7 5 5 4 4 3 3 2 2 2 2 2 2 1 1 1 1 1 1 1 1 1 1 1 1 0 1 1 1 1 1 1 1 1 1
10 12 12 15 17 16 16 15 9 9 8 8 8 7 6 5 5 4 3 3 3 3 3 2 2 2 2 1 1 1 1 1 1 1 1 1 1 1 2 1 1 1 1 1 1 1 1 1 2